• In Deutschland
  • Länderverzeichnis
  • Für 7 Tage
  • Wassertemperatur
  • Satellitenkarten
  • Wetterkarte
  • Widgets
  • user-avatar
    Anmelden

    Stündliche Wetter Hangzhou

    Heute, 21 September, Freitag

    Zeit Temperatur Niederschläge Wind Luftdruck Luftfeuchtigkeit
    00:00 +28°C° 0 mm 1 m/S 756 mmHg 87%
    01:00 +27°C° 0 mm 1 m/S 756 mmHg 88%
    02:00 +27°C° 0 mm 1 m/S 756 mmHg 88%
    03:00 +27°C° 0.1 mm 1 m/S 756 mmHg 89%
    04:00 +27°C° 0.1 mm 1 m/S 756 mmHg 90%
    05:00 +26°C° 0.1 mm 1 m/S 756 mmHg 91%
    06:00 +27°C° 1.2 mm 2 m/S 757 mmHg 90%
    07:00 +27°C° 1.2 mm 2 m/S 757 mmHg 89%
    08:00 +27°C° 1.2 mm 2 m/S 757 mmHg 88%
    09:00 +28°C° 0.2 mm 3 m/S 757 mmHg 85%
    10:00 +28°C° 0.2 mm 3 m/S 757 mmHg 82%
    11:00 +28°C° 0.2 mm 3 m/S 757 mmHg 79%
    12:00 +29°C° 0 mm 3 m/S 757 mmHg 77%
    13:00 +29°C° 0 mm 3 m/S 757 mmHg 74%
    14:00 +30°C° 0 mm 2 m/S 757 mmHg 72%
    15:00 +29°C° 0 mm 2 m/S 757 mmHg 73%
    16:00 +29°C° 0 mm 2 m/S 758 mmHg 75%
    17:00 +29°C° 0 mm 2 m/S 758 mmHg 77%
    18:00 +28°C° 0 mm 2 m/S 758 mmHg 79%
    19:00 +27°C° 0 mm 2 m/S 759 mmHg 81%
    20:00 +26°C° 0 mm 2 m/S 759 mmHg 83%
    21:00 +26°C° 0 mm 1 m/S 759 mmHg 84%
    22:00 +26°C° 0 mm 1 m/S 759 mmHg 84%
    23:00 +25°C° 0 mm 1 m/S 759 mmHg 85%

    Morgen, 22 September, Samstag

    Zeit Temperatur Niederschläge Wind Luftdruck Luftfeuchtigkeit
    00:00 +25°C° 0 mm 1 m/S 759 mmHg 86%
    01:00 +25°C° 0 mm 1 m/S 759 mmHg 86%
    02:00 +25°C° 0 mm 1 m/S 759 mmHg 87%
    03:00 +25°C° 0.1 mm 1 m/S 759 mmHg 88%
    04:00 +25°C° 0.1 mm 1 m/S 759 mmHg 89%
    05:00 +25°C° 0.1 mm 1 m/S 759 mmHg 89%
    06:00 +25°C° 0.3 mm 1 m/S 760 mmHg 89%
    07:00 +26°C° 0.3 mm 1 m/S 760 mmHg 89%
    08:00 +26°C° 0.3 mm 1 m/S 760 mmHg 88%
    09:00 +27°C° 0.4 mm 1 m/S 760 mmHg 87%
    10:00 +27°C° 0.4 mm 2 m/S 760 mmHg 86%
    11:00 +28°C° 0.4 mm 2 m/S 760 mmHg 85%
    12:00 +28°C° 0.4 mm 2 m/S 760 mmHg 84%
    13:00 +28°C° 0.4 mm 3 m/S 759 mmHg 83%
    14:00 +28°C° 0.4 mm 3 m/S 759 mmHg 82%
    15:00 +27°C° 0.5 mm 3 m/S 759 mmHg 83%
    16:00 +27°C° 0.5 mm 2 m/S 759 mmHg 85%
    17:00 +26°C° 0.5 mm 2 m/S 759 mmHg 86%
    18:00 +26°C° 1.7 mm 2 m/S 759 mmHg 89%
    19:00 +25°C° 1.7 mm 2 m/S 760 mmHg 91%
    20:00 +25°C° 1.7 mm 1 m/S 760 mmHg 93%
    21:00 +25°C° 1.1 mm 1 m/S 760 mmHg 93%
    22:00 +25°C° 1.1 mm 1 m/S 760 mmHg 94%
    23:00 +24°C° 1.1 mm 1 m/S 760 mmHg 95%

    übermorgen, 23 September, Sonntag

    Zeit Temperatur Niederschläge Wind Luftdruck Luftfeuchtigkeit
    00:00 +24°C° 0.6 mm 1 m/S 760 mmHg 95%
    01:00 +24°C° 0.6 mm 1 m/S 760 mmHg 95%
    02:00 +24°C° 0.6 mm 1 m/S 760 mmHg 95%
    03:00 +24°C° 1.5 mm 1 m/S 760 mmHg 95%
    04:00 +24°C° 1.5 mm 2 m/S 760 mmHg 95%
    05:00 +24°C° 1.5 mm 2 m/S 760 mmHg 94%
    06:00 +24°C° 0.8 mm 2 m/S 760 mmHg 93%
    07:00 +25°C° 0.8 mm 2 m/S 761 mmHg 91%
    08:00 +25°C° 0.8 mm 2 m/S 761 mmHg 90%
    09:00 +25°C° 0.5 mm 2 m/S 761 mmHg 88%
    10:00 +26°C° 0.5 mm 2 m/S 761 mmHg 85%
    11:00 +26°C° 0.5 mm 2 m/S 761 mmHg 83%
    12:00 +26°C° 0.3 mm 2 m/S 761 mmHg 81%
    13:00 +26°C° 0.3 mm 2 m/S 761 mmHg 80%
    14:00 +26°C° 0.3 mm 2 m/S 760 mmHg 78%
    15:00 +26°C° 0.3 mm 1 m/S 760 mmHg 80%
    16:00 +25°C° 0.3 mm 1 m/S 760 mmHg 81%
    17:00 +25°C° 0.3 mm 1 m/S 761 mmHg 83%
    18:00 +24°C° 0.1 mm 1 m/S 761 mmHg 84%
    19:00 +24°C° 0.1 mm 1 m/S 761 mmHg 85%
    20:00 +23°C° 0.1 mm 1 m/S 761 mmHg 85%
    21:00 +23°C° 0 mm 1 m/S 762 mmHg 86%
    22:00 +21°C° 0 mm 0 m/S 762 mmHg 86%
    23:00 +21°C° 0 mm 0 m/S 762 mmHg 87%

    24 September, Montag

    Zeit Temperatur Niederschläge Wind Luftdruck Luftfeuchtigkeit
    00:00 +20°C° 0 mm 0 m/S 761 mmHg 88%
    01:00 +20°C° 0 mm 0 m/S 761 mmHg 89%
    02:00 +20°C° 0 mm 0 m/S 761 mmHg 90%
    03:00 +22°C° 0 mm 1 m/S 761 mmHg 90%
    04:00 +22°C° 0 mm 1 m/S 761 mmHg 90%
    05:00 +22°C° 0 mm 1 m/S 761 mmHg 90%
    06:00 +23°C° 0.1 mm 1 m/S 761 mmHg 86%
    07:00 +24°C° 0.1 mm 2 m/S 762 mmHg 83%
    08:00 +25°C° 0.1 mm 3 m/S 762 mmHg 79%
    09:00 +26°C° 0.1 mm 3 m/S 762 mmHg 71%
    10:00 +27°C° 0.1 mm 4 m/S 762 mmHg 64%
    11:00 +28°C° 0.1 mm 4 m/S 761 mmHg 57%
    12:00 +28°C° 0 mm 4 m/S 761 mmHg 53%
    13:00 +28°C° 0 mm 4 m/S 761 mmHg 50%
    14:00 +29°C° 0 mm 4 m/S 760 mmHg 46%
    15:00 +28°C° 0 mm 4 m/S 760 mmHg 52%
    16:00 +27°C° 0 mm 3 m/S 760 mmHg 58%
    17:00 +26°C° 0 mm 3 m/S 760 mmHg 64%
    18:00 +25°C° 0 mm 3 m/S 761 mmHg 67%
    19:00 +24°C° 0 mm 3 m/S 761 mmHg 70%
    20:00 +22°C° 0 mm 3 m/S 761 mmHg 72%
    21:00 +22°C° 0 mm 3 m/S 761 mmHg 74%
    22:00 +21°C° 0 mm 2 m/S 761 mmHg 76%
    23:00 +21°C° 0 mm 2 m/S 761 mmHg 78%

    25 September, Dienstag

    Zeit Temperatur Niederschläge Wind Luftdruck Luftfeuchtigkeit
    00:00 +20°C° 0 mm 2 m/S 761 mmHg 78%
    01:00 +20°C° 0 mm 2 m/S 761 mmHg 78%
    02:00 +20°C° 0 mm 2 m/S 761 mmHg 77%
    03:00 +19°C° 0 mm 2 m/S 761 mmHg 77%
    04:00 +19°C° 0 mm 2 m/S 761 mmHg 77%
    05:00 +19°C° 0 mm 2 m/S 761 mmHg 78%
    06:00 +20°C° 0 mm 2 m/S 761 mmHg 73%
    07:00 +21°C° 0 mm 3 m/S 762 mmHg 69%
    08:00 +22°C° 0 mm 3 m/S 762 mmHg 65%
    09:00 +25°C° 0 mm 4 m/S 762 mmHg 62%
    10:00 +26°C° 0 mm 4 m/S 761 mmHg 58%
    11:00 +27°C° 0 mm 4 m/S 761 mmHg 54%
    12:00 +27°C° 0 mm 4 m/S 761 mmHg 54%
    13:00 +27°C° 0 mm 4 m/S 760 mmHg 54%
    14:00 +27°C° 0 mm 4 m/S 759 mmHg 54%
    15:00 +26°C° 0 mm 4 m/S 760 mmHg 58%
    16:00 +25°C° 0 mm 3 m/S 760 mmHg 61%
    17:00 +24°C° 0 mm 3 m/S 760 mmHg 65%
    18:00 +22°C° 0 mm 3 m/S 760 mmHg 66%
    19:00 +21°C° 0 mm 2 m/S 760 mmHg 68%
    20:00 +20°C° 0 mm 2 m/S 761 mmHg 69%
    21:00 +20°C° 0 mm 2 m/S 761 mmHg 71%
    22:00 +19°C° 0 mm 2 m/S 761 mmHg 73%
    23:00 +19°C° 0 mm 2 m/S 761 mmHg 75%

    26 September, Mittwoch

    Zeit Temperatur Niederschläge Wind Luftdruck Luftfeuchtigkeit
    00:00 +19°C° 0 mm 2 m/S 760 mmHg 77%
    01:00 +18°C° 0 mm 2 m/S 760 mmHg 78%
    02:00 +18°C° 0 mm 2 m/S 760 mmHg 79%
    03:00 +18°C° 0 mm 2 m/S 760 mmHg 80%
    04:00 +18°C° 0 mm 2 m/S 760 mmHg 81%
    05:00 +18°C° 0 mm 2 m/S 760 mmHg 81%
    06:00 +19°C° 0 mm 2 m/S 760 mmHg 78%
    07:00 +20°C° 0 mm 2 m/S 761 mmHg 74%
    08:00 +23°C° 0 mm 2 m/S 761 mmHg 71%
    09:00 +22°C° 0 mm 3 m/S 761 mmHg 68%
    10:00 +24°C° 0 mm 3 m/S 760 mmHg 65%
    11:00 +25°C° 0 mm 4 m/S 760 mmHg 62%
    12:00 +26°C° 0 mm 4 m/S 760 mmHg 61%
    13:00 +26°C° 0 mm 4 m/S 759 mmHg 59%
    14:00 +27°C° 0 mm 4 m/S 759 mmHg 58%
    15:00 +26°C° 0 mm 3 m/S 758 mmHg 61%
    16:00 +26°C° 0 mm 3 m/S 758 mmHg 65%
    17:00 +25°C° 0 mm 3 m/S 758 mmHg 68%
    18:00 +24°C° 0 mm 2 m/S 759 mmHg 71%
    19:00 +23°C° 0 mm 2 m/S 759 mmHg 74%
    20:00 +21°C° 0 mm 2 m/S 760 mmHg 77%
    21:00 +20°C° 0 mm 2 m/S 760 mmHg 78%
    22:00 +20°C° 0 mm 2 m/S 759 mmHg 80%
    23:00 +19°C° 0 mm 2 m/S 759 mmHg 82%
    Mehr zeigen